Location: Innerarity Island Observatory
(30.3139°N, 87.4867°W)
Time: 13:09:31
(UTC-05:00)

OPAL - Visible Passes

Search period start: 26 September 2017 00:00
Search period end: 06 October 2017 00:00
Orbit: 743 x 796 km, 100.2° (Epoch: 26 September)

Date Brightness Start Highest point End Pass type
(mag) Time Alt. Az. Time Alt. Az. Time Alt. Az.
26 Sep 8.8 19:58:20 10° S 20:02:58 41° W 20:07:38 10° NNW visible
27 Sep 7.4 19:22:33 10° SSE 19:27:29 79° ENE 19:32:27 10° NNW visible
28 Sep 9.9 20:27:17 10° SSW 20:30:59 21° W 20:34:43 10° NW visible
29 Sep 8.2 19:50:34 10° S 19:55:22 53° WSW 20:00:14 10° NNW visible
30 Sep 7.5 19:15:04 10° SSE 19:19:55 61° ENE 19:24:50 10° N visible
30 Sep 10.6 20:58:15 10° WSW 20:59:05 10° W 20:59:55 10° W visible
01 Oct 9.5 20:19:11 10° SSW 20:23:21 27° W 20:27:34 10° NW visible
02 Oct 7.7 19:42:53 10° S 19:47:47 69° WSW 19:52:45 10° NNW visible
03 Oct 7.7 19:07:40 10° SE 19:12:23 47° ENE 19:17:10 10° N visible
03 Oct 10.3 20:48:54 10° SW 20:51:26 14° W 20:53:58 10° WNW visible
04 Oct 9.0 20:11:16 10° SSW 20:15:45 35° W 20:20:17 10° NW visible
05 Oct 7.4 19:35:16 10° SSE 19:40:13 88° W 19:45:14 10° NNW visible
